[[{"header":{"parameterUnit":"m.s-1","parameterCategory":1,"la1":30.2991,"la2":30.254,"lo1":-89.0895,"lo2":-89.0444,"dy":0.0017,"dx":0.0017,"nx":28,"ny":28,"refTime":"2023-10-03T09:00:00:Z","depth":0,"parameterNumber":2,"parameterNumberName":"U-component_of_WINDS"},"data":[0,0,0,0,0,0,0,0,0,0,0,0,0,0,0,0,0,0,0,0,0,0,0,0,0,0,0,0,0,0,0,0,0,0,0,0,0,0,0,0,0,0,0,0,0,0,0,0,0,0,0,0,0,0,0,0,0,0,-3.748,-3.7479,0,-3.7412,-3.7412,-3.7411,-3.7261,-3.7258,-3.7255,-3.7252,-3.7187,-3.7188,-3.7189,0,0,0,0,0,0,0,0,0,0,0,0,0,-3.7484,-3.7485,-3.748,-3.7479,-3.7478,-3.7412,-3.7412,-3.7411,-3.7262,-3.7258,-3.7254,-3.7251,-3.7187,-3.7188,-3.7189,0,0,0,0,0,0,0,0,0,0,0,0,0,-3.7456,-3.7485,-3.748,-3.7396,-3.7388,-3.7413,-3.7412,-3.741,-3.7262,-3.7258,-3.7253,-3.7249,-3.7186,-3.7188,-3.719,-3.7292,0,0,-3.7195,-3.7196,0,0,0,0,0,0,0,0,-3.7458,-3.7456,-3.7409,-3.7402,-3.7392,-3.734,-3.7389,-3.7371,-3.7264,-3.731,-3.7252,-3.7247,-3.7242,-3.7239,-3.7236,-3.7289,-3.7286,-3.7195,-3.7196,-3.7197,-3.7197,0,0,0,0,0,0,0,-3.746,-3.7458,-3.7453,-3.7409,-3.7398,-3.7363,-3.7354,-3.7385,-3.7303,-3.7306,-3.7295,-3.7288,-3.7237,-3.7235,-3.7234,-3.7286,-3.7195,-3.7196,-3.7197,-3.7198,-3.7419,-3.7423,0,0,0,0,0,0,-3.7474,-3.7461,-3.7455,-3.7451,-3.7414,-3.7367,-3.7356,-3.7362,-3.7302,-3.7288,-3.7293,-3.7282,-3.7235,-3.7232,-3.7231,-3.7346,-3.7197,-3.7198,-3.7199,-3.7414,-3.742,-3.7425,0,0,0,0,0,0,-3.7474,-3.7475,-3.7458,-3.7453,-3.7448,-3.7371,-3.7379,-3.7363,-3.7361,-3.7292,-3.7277,-3.7306,-3.7231,-3.7229,-3.7278,-3.7341,-3.7199,-3.7201,-3.7408,-3.7416,-3.7422,-3.7577,0,0,0,0,0,0,-3.7475,-3.7476,-3.7513,-3.7455,-3.7449,-3.7505,-3.7383,-3.7365,-3.7364,-3.7349,-3.73,-3.7288,-3.7227,-3.7276,-3.7279,-3.7341,-3.7202,-3.7402,-3.7411,-3.742,-3.7566,-3.7589,-3.7609,0,0,0,0,0,-3.7476,-3.756,-3.7515,-3.7516,-3.7494,-3.7509,-3.7506,-3.7432,-3.737,-3.7407,-3.7363,-3.729,-3.7335,-3.7282,-3.7285,-3.7348,-3.7398,-3.7409,-3.7419,-3.7557,-3.7585,-3.7608,0,0,0,0,0,0,-3.7629,-3.7551,-3.75,-3.7568,-3.7546,-3.7484,-3.7528,-3.7465,-3.7461,-3.7447,-3.7358,-3.7349,-3.741,-3.7384,-3.7327,-3.7444,-3.7354,-3.7366,-3.7458,-3.7484,-3.7505,-3.7509,-3.7203,0,0,0,0,0,-3.767,-3.7688,-3.762,-3.7687,-3.7678,-3.7606,-3.761,-3.7555,-3.7529,-3.7519,-3.7478,-3.7457,-3.7466,-3.7474,-3.7479,-3.7563,-3.755,-3.7608,-3.7629,-3.7647,-3.7658,-3.7699,-3.7724,-3.7461,-3.746,-3.746,0,0,-3.7757,-3.7716,-3.7733,-3.7716,-3.7692,-3.7714,-3.7598,-3.7626,-3.7641,-3.7524,-3.7566,-3.7537,-3.7507,-3.7574,-3.7601,-3.7554,-3.7728,-3.7661,-3.7676,-3.7676,-3.7713,-3.7738,-3.776,-3.7468,-3.7467,-3.7465,0,0,-3.7923,-3.7896,-3.7947,-3.7926,-3.7891,-3.7842,-3.7856,-3.7802,-3.7777,-3.7819,-3.7731,-3.7749,-3.7767,-3.7749,-3.7742,-3.7905,-3.7837,-3.7909,-3.8019,-3.8061,-3.8081,-3.8099,-3.8155,-3.8177,-3.7921,-3.7921,-3.7921,0,-3.8035,-3.8061,-3.7982,-3.8014,-3.801,-3.7904,-3.7956,-3.794,-3.791,-3.791,-3.7858,-3.7877,-3.785,-3.7911,-3.795,-3.7949,-3.7961,-3.7913,-3.8085,-3.8102,-3.8117,-3.817,-3.8192,-3.793,-3.7929,-3.7928,-3.7927,0,-3.82,-3.822,-3.8266,-3.8238,-3.8239,-3.8282,-3.8209,-3.822,-3.8167,-3.8125,-3.8169,-3.8133,-3.8128,-3.8139,-3.8088,-3.8192,-3.8164,-3.8101,-3.8008,-3.8152,-3.82,-3.822,-3.7942,-3.7939,-3.7937,-3.7934,0,0,-3.8458,-3.8386,-3.8404,-3.8389,-3.8344,-3.8359,-3.8398,-3.8392,-3.8402,-3.8386,-3.8416,-3.8434,-3.8374,-3.8367,-3.8313,-3.835,-3.8479,-3.8281,-3.8279,-3.8318,-3.8591,-3.8638,-3.8663,-3.8436,-3.8439,-3.8442,-3.8593,0,-3.8613,-3.8672,-3.8602,-3.8677,-3.8694,-3.8596,-3.8629,-3.8606,-3.8569,-3.8579,-3.8538,-3.8551,-3.8472,-3.8467,-3.8499,-3.8457,-3.8533,-3.8445,-3.8462,-3.8464,-3.847,-3.8688,-3.8737,-3.8881,-3.8612,-3.8615,-3.8617,0,-3.88,-3.879,-3.8867,-3.8816,-3.8821,-3.8852,-3.8841,-3.8853,-3.8825,-3.8795,-3.8788,-3.8723,-3.8758,-3.8671,-3.8718,-3.866,-3.8664,-3.8644,-3.8648,-3.8645,-3.8547,-3.8688,-3.8926,-3.8947,-3.8646,-3.8644,-3.8642,0,-3.8978,-3.8986,-3.9031,-3.9023,-3.8966,-3.899,-3.8968,-3.8935,-3.8936,-3.8928,-3.8927,-3.8924,-3.8922,-3.8921,-3.8858,-3.88,-3.8913,-3.882,-3.8889,-3.8891,-3.8915,-3.8913,-3.9154,-3.8922,-3.8921,-3.8921,-3.8921,0,-3.9156,-3.9206,-3.911,-3.9139,-3.9192,-3.9113,-3.9169,-3.9137,-3.9109,-3.913,-3.9046,-3.9068,-3.8984,-3.8997,-3.8948,-3.8994,-3.8995,-3.8972,-3.8957,-3.8977,-3.898,-3.8976,-3.8964,-3.8927,-3.8925,-3.8924,-3.8923,0,-3.9363,-3.9301,-3.9344,-3.9287,-3.9274,-3.9316,-3.9268,-3.9292,-3.925,-3.9277,-3.9279,-3.9213,-3.9224,-3.9161,-3.9162,-3.9129,-3.9199,-3.9169,-3.9208,-3.9198,-3.9269,-3.9262,-3.9513,-3.9541,-3.9294,-3.9296,-3.9299,0,-3.9479,-3.9515,-3.9462,-3.9469,-3.9451,-3.9464,-3.9464,-3.9389,-3.9393,-3.9365,-3.9393,-3.9397,-3.9396,-3.9419,-3.9372,-3.9372,-3.934,-3.9428,-3.9339,-3.9358,-3.9339,-3.9337,-3.9339,-3.9446,-3.9449,-3.9451,-3.9453,0,-3.9692,-3.9659,-3.9662,-3.9655,-3.9657,-3.9648,-3.9634,-3.9645,-3.9563,-3.9573,-3.9582,-3.9582,-3.9582,-3.9587,-3.9578,-3.9556,-3.9492,-3.9482,-3.9497,-3.9517,-3.9537,-3.9525,-3.9256,-3.9476,-3.9474,-3.9472,-3.9471,-3.947,-3.9855,-3.9882,-3.9848,-3.9855,-3.9836,-3.9824,-3.9844,-3.9804,-3.981,-3.9803,-3.9759,-3.9777,-3.975,-3.973,-3.9715,-3.9729,-3.9687,-3.971,-3.9715,-3.9722,-3.9733,-3.9537,-3.9727,-3.9727,-3.9726,-3.9725,-3.9725,0,-4.0061,-4.0035,-4.0041,-4.0023,-4.0028,-3.9967,-3.9948,-3.9957,-3.9973,-3.9952,-3.9953,-3.9965,-3.997,-3.9923,-3.9922,-3.9942,-3.9913,-3.9945,-3.9941,-3.9937,-3.9772,-3.9757,-3.9968,-3.9968,-3.9968,-3.9968,-3.9968,-3.9968,-4.0169,-4.021,-4.0175,-4.0207,-4.0181,-4.0196,-4.0191,-4.018,-4.0163,-4.0179,-4.0182,-4.0152,-4.0121,-4.0117,-4.012,-4.0106,-4.0109,-4.015,-4.0127,-3.9973,-3.9949,-3.9926,-3.9912,-4.0152,-4.0152,-4.029,-4.0292,-4.0293]},{"header":{"parameterUnit":"m.s-1","parameterCategory":1,"la1":30.2991,"la2":30.254,"lo1":-89.0895,"lo2":-89.0444,"dy":0.0017,"dx":0.0017,"nx":28,"ny":28,"refTime":"2023-10-03T09:00:00:Z","depth":0,"parameterNumber":3,"parameterNumberName":"V-component_of_WINDS"},"data":[0,0,0,0,0,0,0,0,0,0,0,0,0,0,0,0,0,0,0,0,0,0,0,0,0,0,0,0,0,0,0,0,0,0,0,0,0,0,0,0,0,0,0,0,0,0,0,0,0,0,0,0,0,0,0,0,0,0,1.0982,1.0983,0,1.1001,1.1002,1.1002,1.1035,1.1036,1.1037,1.1037,1.1053,1.1053,1.1052,0,0,0,0,0,0,0,0,0,0,0,0,0,1.0973,1.0973,1.0982,1.0983,1.0983,1.1001,1.1002,1.1002,1.1035,1.1036,1.1037,1.1037,1.1053,1.1053,1.1052,0,0,0,0,0,0,0,0,0,0,0,0,0,1.0983,1.0973,1.0982,1.1002,1.1004,1.1001,1.1002,1.1002,1.1035,1.1036,1.1037,1.1038,1.1053,1.1053,1.1052,1.1031,0,0,1.1052,1.1051,0,0,0,0,0,0,0,0,1.0982,1.0983,1.0999,1.1001,1.1003,1.1017,1.1004,1.1012,1.1035,1.1023,1.1037,1.1038,1.104,1.1041,1.1042,1.1032,1.1033,1.1052,1.1051,1.1051,1.1051,0,0,0,0,0,0,0,1.0981,1.0982,1.099,1.0999,1.1001,1.1009,1.1011,1.1006,1.1026,1.1024,1.1027,1.1029,1.1041,1.1042,1.1043,1.1033,1.1052,1.1051,1.1051,1.1051,1.1008,1.1007,0,0,0,0,0,0,1.0978,1.0982,1.0989,1.099,1.0995,1.1008,1.1011,1.1011,1.1026,1.1029,1.1028,1.103,1.1042,1.1043,1.1043,1.102,1.1051,1.1051,1.1051,1.1009,1.1007,1.1006,0,0,0,0,0,0,1.0978,1.0979,1.0989,1.0987,1.0989,1.1007,1.1008,1.1011,1.1013,1.1029,1.1032,1.1025,1.1043,1.1044,1.1035,1.1021,1.1051,1.1051,1.101,1.1008,1.1007,1.0973,0,0,0,0,0,0,1.0977,1.0978,1.0971,1.0986,1.0989,1.098,1.1007,1.1011,1.1012,1.1016,1.1027,1.103,1.1044,1.1035,1.1034,1.1021,1.105,1.1011,1.1009,1.1007,1.0975,1.097,1.0966,0,0,0,0,0,1.0977,1.096,1.097,1.0971,1.098,1.0979,1.098,1.0997,1.1011,1.1004,1.1014,1.103,1.1023,1.1034,1.1033,1.102,1.1012,1.101,1.1007,1.0977,1.0971,1.0966,0,0,0,0,0,0,1.094,1.0962,1.0974,1.0961,1.0968,1.0985,1.0976,1.0991,1.0993,1.0995,1.1016,1.1018,1.1006,1.1012,1.1024,1.1001,1.102,1.1017,1.0997,1.0992,1.0987,1.0985,1.105,0,0,0,0,0,1.0931,1.093,1.0948,1.0935,1.0938,1.0956,1.0957,1.097,1.0977,1.098,1.099,1.0995,1.0995,1.0994,1.0994,1.0977,1.098,1.0968,1.0963,1.0959,1.0957,1.0948,1.0943,1.0999,1.0999,1.0999,0,0,1.0911,1.0923,1.092,1.0928,1.0935,1.0932,1.0959,1.0954,1.0952,1.0979,1.0971,1.0979,1.0986,1.0974,1.0968,1.0978,1.0942,1.0956,1.0953,1.0953,1.0946,1.094,1.0936,1.0997,1.0998,1.0998,0,0,1.0874,1.0883,1.0873,1.088,1.0891,1.0904,1.0901,1.0916,1.0922,1.0916,1.0936,1.0933,1.0931,1.0936,1.0939,1.0905,1.0919,1.0904,1.088,1.0872,1.0868,1.0864,1.0852,1.0847,1.0902,1.0902,1.0902,0,1.0847,1.0845,1.0866,1.0861,1.0864,1.089,1.088,1.0885,1.0895,1.0896,1.0907,1.0907,1.0913,1.0902,1.0894,1.0895,1.0893,1.0902,1.0867,1.0863,1.086,1.0849,1.0844,1.09,1.09,1.09,1.09,0,1.0812,1.0811,1.0801,1.0812,1.0814,1.0806,1.0825,1.0825,1.0838,1.0849,1.0842,1.0851,1.0854,1.0853,1.0865,1.0843,1.0849,1.0863,1.0883,1.0852,1.0842,1.0838,1.0897,1.0898,1.0898,1.0899,0,0,1.0751,1.0775,1.0771,1.0776,1.0791,1.0789,1.0783,1.0788,1.0786,1.0793,1.0788,1.0786,1.08,1.0803,1.0816,1.0809,1.0782,1.0824,1.0825,1.0815,1.0758,1.0747,1.0742,1.0792,1.0791,1.079,1.0758,0,1.0716,1.0708,1.0727,1.0714,1.0712,1.0738,1.0732,1.074,1.0751,1.075,1.0762,1.0761,1.0779,1.0781,1.0775,1.0786,1.077,1.0789,1.0786,1.0786,1.0783,1.0736,1.0724,1.0692,1.0754,1.0753,1.0753,0,1.0674,1.068,1.0667,1.0683,1.0683,1.0678,1.0684,1.0684,1.0694,1.0702,1.0706,1.0722,1.0716,1.0736,1.0729,1.0741,1.0741,1.0747,1.0746,1.0745,1.0767,1.0734,1.0683,1.0678,1.0746,1.0747,1.0747,0,1.063,1.0635,1.0628,1.0632,1.0651,1.0647,1.0654,1.0665,1.0667,1.0672,1.0673,1.0677,1.0679,1.0681,1.0697,1.071,1.0688,1.0709,1.0694,1.0693,1.0687,1.0687,1.0634,1.0688,1.0688,1.0688,1.0688,0,1.0589,1.058,1.0609,1.0604,1.0595,1.0617,1.0607,1.0617,1.0626,1.0624,1.0646,1.0643,1.0665,1.0664,1.0677,1.0669,1.0669,1.0675,1.0679,1.0673,1.0672,1.0673,1.0675,1.0687,1.0687,1.0688,1.0688,0,1.0538,1.0557,1.0551,1.057,1.0575,1.0567,1.0583,1.0579,1.0592,1.0589,1.0589,1.0608,1.0609,1.0626,1.0629,1.0638,1.0624,1.0632,1.0621,1.0623,1.0607,1.0608,1.0553,1.0546,1.0605,1.0604,1.0604,0,1.051,1.0504,1.0523,1.0524,1.0531,1.0531,1.0534,1.0555,1.0557,1.0568,1.0563,1.0566,1.0569,1.0568,1.0582,1.0585,1.0592,1.0572,1.0592,1.0587,1.0591,1.0591,1.0591,1.0568,1.0567,1.0566,1.0566,0,1.0458,1.0469,1.0472,1.0478,1.0481,1.0487,1.0494,1.0493,1.0517,1.0518,1.0519,1.0522,1.0526,1.0528,1.0534,1.0541,1.0557,1.056,1.0556,1.055,1.0544,1.0547,1.0609,1.0561,1.0561,1.0561,1.0562,1.0562,1.0418,1.0414,1.0427,1.043,1.0438,1.0445,1.0443,1.0456,1.0458,1.0464,1.0477,1.0476,1.0487,1.0497,1.0502,1.0502,1.0511,1.0506,1.0505,1.0503,1.05,1.0545,1.0503,1.0503,1.0503,1.0503,1.0503,0,1.0367,1.0377,1.038,1.039,1.0393,1.041,1.0419,1.0419,1.0419,1.0428,1.0431,1.0433,1.0436,1.045,1.0454,1.0451,1.0458,1.0451,1.0451,1.0452,1.0491,1.0494,1.0445,1.0445,1.0445,1.0445,1.0445,1.0445,1.0341,1.0335,1.0347,1.0346,1.0356,1.0356,1.036,1.0366,1.0374,1.0375,1.0378,1.0388,1.0399,1.0405,1.0407,1.0412,1.0412,1.0402,1.0408,1.0444,1.045,1.0455,1.0457,1.0402,1.0402,1.037,1.0369,1.0369]}]]